ONEWEB-0289, 49079

Orbit data source: Space-Track

ONEWEB-0289, 49079 is a payload satellite owned by One Web (NAA) (UK) in LEO that was launched on Sat, 21 Aug 2021 UTC via a SOYUZ-2-1B launch vehicle from the Tyuratam Missile And Space Complex (TTMTR). Payload-class satellites include a variety of spacecraft equipped with specific instruments for various scientific and technological missions. These include communications satellites like Starlink; space stations such as the ISS; scientific satellites like the Hubble; Earth observation satellites from companies like Planet Labs, Umbra, and HawkEye 360; GPS; miniature CubeSats for education and research; and military/defense satellites.

Loading next visibility...
Identifier
49079, 2021-075E
Orbit
LEO
Country
Flag of UKUK
Related business
Manufacturer
One Web
Mission
Operational Commercial Communications
Bus & Motor
ARROW, Unknown motor
Mass
148 kg wet, ~140 kg dry
Launch date (UTC)
2021-08-21 (5 years ago)
Launch vehicle
SOYUZ-2-1B
Launch site
Tyuratam Missile And Space Complex (TTMTR)
Object type
Payload
Rocket body
Debris
Shape & HBR
Trap Box + 2 Pan, 6.7 m
Radar Cross Section
3.464 m², Large (>1 m²)

Expand to show TLE details & history
Last TLE update: 20 hours ago

TLE from 20 hours ago
0 ONEWEB-0289
1 49079U 21075E   26175.26738823  .00000034  00000-0  53554-4 0  9997
2 49079  87.9136   4.4743 0001998 100.6651 259.4706 13.17647493235135
Epoch: 2026-06-24T06:25Z
TLE epoch observation values (Epoch: 2026-06-24T06:25:02.343Z)
Latitude
0.00004°
Longitude
-4.21251°
Altitude
1,196.894 km
Speed
7.255 km/s
True Right ascension
00h 17m 53s
True Declination
0° 00' 00"
Sunlit
Object was in daylight at epoch
Visualization orbit readout
Latitude
Unknown
Longitude
Unknown
Altitude
Unknown
Speed
Unknown
Apparent Right ascension
Unknown
Apparent Declination
Unknown
Sunlit
N/A
Visualization observer readout
Local Sidereal Time
13:53:59
Azimuth
Unknown
Elevation
Unknown
Doppler factor
Unknown
Orbital elements
Apogee altitude
1,192.34 km
Perigee altitude
1,189.316 km
Semi-major axis
7,568.965 km
Eccentricity
0.0002
Inclination
87.9136°
RAAN
4.4743°
Arg. of periapsis
100.6651°
True anomaly
259.44809°
Mean anomaly
259.4706°
Eccentric anomaly
259.45935°
Mean motion
3.29601 °/min
Orbital period
109.22 mins
BSTAR
0.000053554
Loading maneuver chart data...
Computing Atmospheric mass density...
Loading historical data...
Loading historical data...
Loading historical data...
Loading historical data...
Loading historical data...
Loading historical data...
Loading historical data...

Documentation

Showing up to 5 results
|